Regional Weather Roundup
Issued by NWS Northern Indiana

Home | Current Version | Previous Version | Text Only | Print | Product List | Glossary Off
Versions: 1 2 3 4 5 6 7 8 9 10 11 12 13 14 15 16 17 18 19 20 21 22 23 24 25 26 27 28 29 30 31 32 33 34 35 36 37 38 39 40 41 42 43 44 45 46 47 48 49 50

000
ASUS43 KIWX 020100
RWRIWX

KIWX WEATHER ROUNDUP
NATIONAL WEATHER SERVICE NORTHERN INDIANA
900 PM EDT WED JUL 01 2015

NOTE: "FAIR" INDICATES FEW OR NO CLOUDS BELOW 12,000 FEET WITH NO
SIGNIFICANT WEATHER AND/OR OBSTRUCTIONS TO VISIBILITY.

* THESE STATIONS ARE NOT UNDER NWS QUALITY CONTROL. THEY ALSO MAY NOT
  REPORT WEATHER SUCH AS PRECIPITATION OR FOG.

INZ001>027-020200-
NORTHERN INDIANA

CITY           SKY/WX    TMP DP  RH WIND       PRES   REMARKS
GARY*          MOCLDY    59  54  82 N9        29.99S
SOUTH BEND     MOCLDY    59  52  77 N8        29.98R
ELKHART*       MOCLDY    59  52  77 NW6       29.97R
GOSHEN         MOCLDY    61  52  72 NW10      29.96R
ANGOLA*        CLEAR     66  57  72 NW6       29.94R
FORT WAYNE     MOCLDY    67  57  70 NW5       29.94R
PERU/GRISSOM   MOCLDY    67  59  75 N10       29.94R

$$
INZ028>050-020200-
CENTRAL INDIANA

CITY           SKY/WX    TMP DP  RH WIND       PRES   REMARKS
LAFAYETTE      MOCLDY    66  57  72 NE13      29.94R
KOKOMO*        MOCLDY    70  59  68 N9        29.93S
MUNCIE*        MOCLDY    71  63  75 N6        29.93R
INDIANAPOLIS   CLOUDY    74  62  66 NE5       29.90R

$$
MIZ043>046-050>051-056>058-064>065-071>073-077>080-020200-
SOUTHWEST LOWER MICHIGAN

CITY           SKY/WX    TMP DP  RH WIND       PRES   REMARKS
BATTLE CREEK   MOCLDY    63  53  70 NW7       29.96R
BENTON HARBOR  CLOUDY    57  52  83 NW5       29.98S
COLDWATER*     MOCLDY    63  53  72 NW5       29.95R
HILLSDALE*     MOCLDY    65  55  70 CALM      29.95R
HOLLAND        CLOUDY    59  52  77 NW5       29.98R
GRAND RAPIDS   MOCLDY    63  52  67 NW6       29.96R
KALAMAZOO      MOCLDY    61  52  72 NW8       29.97R
STURGIS*       CLOUDY    61  54  77 NW6       29.96R
THREE RIVERS*  FAIR      60  52  76 W7        29.97R

$$
OHZ001>008-015>018-024>025-020200-
NORTHWEST OHIO

CITY           SKY/WX    TMP DP  RH WIND       PRES   REMARKS
DEFIANCE       PTCLDY    69  57  65 NW3       29.93R
FINDLAY        PTCLDY    71  57  61 NW3       29.91R
TOLEDO EXPRESS MOCLDY    69  55  60 N5        29.92R
TOLEDO METCALF MOCLDY    70  57  63 NE5       29.93R
LIMA           PTCLDY    67  61  81 NW3       29.92R

$$
AND FOR LAKE MICHIGAN COASTAL AND OPEN LAKE BUOY OBSERVATIONS

STATION/POSITION TEMP    WIND        PRES    VSBY  WAVE
                 AIR SEA DIR/SP/G                  HT/PER
                 (F)     (DEG/KT/KT) (MB)    (MI)  (FT/S)
CALUMET HARBOR    58      10/  9/ 11   N/A
MICHIGAN CITY     58      20/ 12/ 15   N/A
BURNS HARBOR      60      30/ 12/ 14 1015.9R
SAINT JOSEPH      58     350/  6/ 11   N/A
4 MI NW BRIDGMAN  58 63                N/A           3/ 4
MICHIGAN CITY     59 65   40/ 10/ 14   N/A           3/ 4

$$
&&


USA.gov is the U.S. government's official web portal to all federal, state and local government web resources and services.